Simultaneous Nadir Overpasses (SNOs) Predictions

Prediction of SNOs between METOP-B and TERRA Satellite Orbit:

Table of predicted SNOs for the next 14.0 days since TLE Epoch: 5/7/2018
Index Date (METOP-B) Time (METOP-B) Lat,Lon (METOP-B) SZA (METOP-B ) Date (TERRA) Time (TERRA) Lat,Lon (TERRA) SZA (TERRA ) Distance(km) Time Diff (sec)
1 05/07/2018 17:17:37 -81.34, 148.22 112.59 05/07/2018 17:18:28 -81.34, 148.37 112.55 2.54 51
2 05/07/2018 18:08:16 81.35, -43.89 67.48 05/07/2018 18:07:54 81.35, -43.84 67.47 0.92 22
3 05/10/2018 12:51:56 -81.34,-145.02 113.29 05/10/2018 12:52:44 -81.34,-145.06 113.27 0.65 48
4 05/10/2018 13:42:35 81.35, 22.83 66.78 05/10/2018 13:42:10 81.35, 22.71 66.75 2.07 25
5 05/13/2018 08:26:17 -81.34, -78.67 114.00 05/13/2018 08:27:01 -81.35, -78.53 113.96 2.35 44
6 05/13/2018 09:16:56 81.35, 89.15 66.06 05/13/2018 09:16:27 81.35, 89.21 66.05 1.17 29
7 05/16/2018 04:00:37 -81.35, -11.94 114.63 05/16/2018 04:01:18 -81.35, -12.05 114.62 1.97 41
8 05/16/2018 04:51:16 81.35, 155.85 65.43 05/16/2018 04:50:44 81.36, 155.66 65.39 3.12 32
9 05/18/2018 23:34:57 -81.35, 54.39 115.26 05/18/2018 23:35:34 -81.35, 54.38 115.24 0.63 37




NCC Satellite Simultaneous Nadir Overpasses (SNOs) Prediction Service
